Regional Weather Roundup
Issued by NWS

Home | Current Version | Previous Version | Graphics & Text | Print | Product List | Glossary On
Versions: 1 2 3 4 5 6 7 8 9 10 11 12 13 14 15 16 17 18 19 20 21 22 23 24 25 26 27 28 29 30 31 32 33 34 35 36 37 38 39 40 41 42 43 44 45 46 47 48 49 50
000
ASUS43 KLOT 211803
RWRIL

ILLINOIS REGIONAL WEATHER ROUNDUP
NATIONAL WEATHER SERVICE CHICAGO/ROMEOVILLE IL
1200 PM CST TUE NOV 21 2017

NOTE: "FAIR" INDICATES FEW OR NO CLOUDS BELOW 12,000 FEET WITH NO
SIGNIFICANT WEATHER AND/OR OBSTRUCTIONS TO VISIBILITY.

* THESE STATIONS ARE NOT UNDER NWS QUALITY CONTROL. THEY ALSO MAY NOT
  REPORT WEATHER SUCH AS PRECIPITATION OR FOG.

ILZ001-002-007-009-015-016-024-211900-
NORTHWEST ILLINOIS

CITY           SKY/WX    TMP DP  RH WIND       PRES   REMARKS
MOLINE         CLOUDY    36  22  56 NW16G30   29.95R WCI  26
6HR MIN TEMP:  36; 6HR MAX TEMP:  45; 6HR PCP:  0.02;

STERLING*      PTSUNNY   35  21  56 MISG      29.91R
SAVANNA*       CLOUDY    34  18  52 NW21      29.93R WCI  22
$$

ILZ003-004-008-010-011-017-018-211900-
NORTH CENTRAL ILLINOIS

CITY           SKY/WX    TMP DP  RH WIND       PRES   REMARKS
ROCKFORD       CLOUDY    36  18  48 NW17      29.89R WCI  26
6HR MIN TEMP:  36; 6HR MAX TEMP:  44; 6HR PCP: TRACE;

FREEPORT*      CLOUDY    33  19  55 NW16G28   29.91S WCI  22
ROCHELLE*      CLOUDY    35  19  53 NW22G31   29.89R WCI  23
DE KALB*       CLOUDY    35  22  58 NW23G32   29.85S WCI  24
PERU*          CLOUDY    38  25  61 NW21      29.90R WCI  27
$$

ILZ005-006-012>014-019>023-211900-
NORTHEAST ILLINOIS

CITY           SKY/WX    TMP DP  RH WIND       PRES   REMARKS
CHICAGO-OHARE  CLOUDY    42  21  43 W17G24    29.81R
6HR MIN TEMP:  42; 6HR MAX TEMP:  44; 6HR PCP:  0.02;

CHICAGO-MIDWAY CLOUDY    42  26  53 W15G24    29.82S
6HR MIN TEMP:  41; 6HR MAX TEMP:  45; 6HR PCP:  0.04;

AURORA         CLOUDY    37  25  61 NW21      29.85R WCI  26
6HR MIN TEMP:  37; 6HR MAX TEMP:  41; 6HR PCP:  0.03;

LANSING*       LGT RAIN  40  35  81 W8        29.82F
JOLIET*        CLOUDY    42  29  58 NW12G21   29.85R
WAUKEGAN       CLOUDY    42  18  37 W9G18     29.79R
6HR MIN TEMP:  42; 6HR MAX TEMP:  45;

DUPAGE AIRPORT CLOUDY    38  22  52 W17G28    29.83R WCI  28
6HR MIN TEMP:  38; 6HR MAX TEMP:  41; 6HR PCP:  0.02;

KANKAKEE*      RAIN      42  34  72 W14       29.87R
WHEELING       CLOUDY    42  17  36 W14G28    29.82R
6HR MIN TEMP:  42; 6HR MAX TEMP:  45; 6HR PCP:  0.01;

MORRIS*        CLOUDY    40  29  65 NW20G26   29.85R
ROMEOVILLE*    CLOUDY    39  26  60 W17G28    29.83R WCI  30
NORTHERLY ISL    N/A     42  32  67 W8          N/A
$$

LMZ740>746-211900-
SOUTHERN LAKE MICHIGAN

STATION/POSITION SKY/WX   TEMP    WIND        PRES    VSBY  WAVE
                          AIR SEA DIR/SP/G                  HT/PER
                          (F)     (DEG/KT/KT) (MB)    (MI)  (FT/S)
SOUTHERN BUOY              45 48  300/ 17/ 21 1007.9          5/ 6
HARRISON CRIB              42     260/ 18/ 21   N/A
BURNHAM HARBOR             42     280/  9/ 15   N/A
CALUMET HARBOR             41     250/  8/ 12 1008.7F
BURNS HARBOR               42     280/ 14/ 20 1010.2S
MICHIGAN CITY              42     240/ 24/ 26   N/A
$$

ILZ025>027-034>036-040-047-049-050-058-095>099-211900-
WEST-CENTRAL ILLINOIS

CITY           SKY/WX    TMP DP  RH WIND       PRES   REMARKS
QUINCY         CLOUDY    43  23  45 NW20      29.99R
GALESBURG*     CLOUDY    40  28  62 NW14      29.95S
MACOMB*        CLOUDY    40  26  58 NW16G25   29.98S
JACKSONVILLE*  CLOUDY    46  28  49 NW15      29.96R
PITTSFIELD*    PTSUNNY   48  28  47 NW12      29.99R
$$

ILZ028>032-037-038-041>044-048-051>054-059>061-211900-
CENTRAL ILLINOIS

CITY           SKY/WX    TMP DP  RH WIND       PRES   REMARKS
PONTIAC        CLOUDY    40  28  60 W16       29.91R
BLOOMINGTON    PTSUNNY   45  32  60 N14       29.90S
DECATUR        PTSUNNY   51  33  50 W13       29.91S
PEORIA         CLOUDY    41  21  44 NW14G33   29.94R
6HR MIN TEMP:  36; 6HR MAX TEMP:  48;

LACON*         CLOUDY    38  22  52 NW20G28   29.93R WCI  29
LINCOLN*       MOSUNNY   48  32  53 N9G17     29.92R
SPRINGFIELD    CLOUDY    49  28  44 NW14      29.95R
6HR MIN TEMP:  40; 6HR MAX TEMP:  52;

TAYLORVILLE    PTSUNNY   51  33  51 W13G18    29.94R
6HR MIN TEMP:  36; 6HR MAX TEMP:  52;

$$

ILZ033-039-045-046-055>057-062-063-211900-
EAST-CENTRAL ILLINOIS

CITY           SKY/WX    TMP DP  RH WIND       PRES   REMARKS
CHAMPAIGN      MOSUNNY   52  35  52 W17       29.90R
DANVILLE*      CLOUDY    50  36  59 W18G24    29.86R
RANTOUL*       CLOUDY    49  35  59 W17       29.89S
MATTOON        MOSUNNY   52  35  52 SW10G21   29.90S
PARIS*         MOSUNNY   52  37  58 W16       29.91R
$$

ILZ079-100>102-211900-
SOUTHWEST ILLINOIS

CITY           SKY/WX    TMP DP  RH WIND       PRES   REMARKS
ALTON          CLOUDY    54  36  50 NW14      29.95R
BELLEVILLE     MOSUNNY   57  34  41 W10       29.93S
CAHOKIA*       PTSUNNY   57  33  40 NW13G18   29.95S
SPARTA*        MOSUNNY   54  35  47 SW8       29.96F
$$

ILZ064>066-069>071-074>076-080>082-084>086-088>090-092>094-211900-
SOUTH-CENTRAL ILLINOIS

CITY           SKY/WX    TMP DP  RH WIND       PRES   REMARKS
CARBONDALE     MOSUNNY   56  35  45 SW14G22   29.96F
6HR MIN TEMP:  38; 6HR MAX TEMP:  56;

CAIRO*         SUNNY     55  37  50 SW13G18   29.99F
EFFINGHAM*     CLOUDY    52  35  53 SW10G18   29.94S
MARION         MOSUNNY   55  34  44 SW12      29.97F
MT. VERNON     PTSUNNY   53  37  54 SW12      29.95F
CENTRALIA*     PTSUNNY   53  37  53 W13       29.95R
SALEM*         MOSUNNY   56  35  45 W14       29.94S
METROPOLIS*    CLOUDY    56  34  44 SW10      30.00F
$$

ILZ067-068-072-073-078-083-087-091-211900-
SOUTHEAST ILLINOIS

CITY           SKY/WX    TMP DP  RH WIND       PRES   REMARKS
LAWRENCEVILLE  PTSUNNY   55  35  47 SW16      29.94F
FLORA*         PTSUNNY   57  35  44 W13       29.94S
FAIRFIELD*     MOSUNNY   54  34  48 SW5       29.94S
HARRISBURG*    PTSUNNY   55  35  47 SW12G18   29.96F
ROBINSON*      PTSUNNY   54  35  47 SW18      29.93F
CARMI*         MOSUNNY   55  35  47 SW14      29.95F
$$

ABBREVIATIONS USED IN REMARKS
   TC - TEMPERATURE IN CELSIUS
  WCI - WIND CHILL INDEX
   HX - HEAT INDEX
  VSB - VISIBILITY
$$





USA.gov is the U.S. government's official web portal to all federal, state and local government web resources and services.